Time,TemperatureF,DewpointF,PressureIn,WindDirection,WindDirectionDegrees,WindSpeedMPH,WindSpeedGustMPH,Humidity,HourlyPrecipIn,Conditions,Clouds,dailyrainin,SoftwareType,DateUTC
2013-05-08 00:08:00,71.6,55.0,29.92,SSE,156,8.0,10.0,56,0.00,,,0.00,weatherlink.com 1.10,2013-05-08 05:08:00,
2013-05-08 00:23:00,71.5,55.0,29.92,SSE,152,8.0,10.0,56,0.00,,,0.00,weatherlink.com 1.10,2013-05-08 05:23:00,
2013-05-08 00:38:00,71.2,56.0,29.92,SSE,147,7.0,10.0,58,0.00,,,0.00,weatherlink.com 1.10,2013-05-08 05:38:00,
2013-05-08 00:53:00,70.6,56.0,29.92,SSE,147,8.0,8.0,60,0.00,,,0.00,weatherlink.com 1.10,2013-05-08 05:53:00,
2013-05-08 01:08:00,71.0,56.0,29.92,South,174,7.0,13.0,60,0.00,,,0.00,weatherlink.com 1.10,2013-05-08 06:08:00,
2013-05-08 01:23:00,70.8,57.0,29.92,South,175,0.0,5.0,62,0.00,,,0.00,weatherlink.com 1.10,2013-05-08 06:23:00,
2013-05-08 01:38:00,70.1,57.0,29.92,South,175,2.0,3.0,64,0.00,,,0.00,weatherlink.com 1.10,2013-05-08 06:38:00,
2013-05-08 01:53:00,69.2,57.0,29.92,South,175,3.0,4.0,66,0.00,,,0.00,weatherlink.com 1.10,2013-05-08 06:53:00,
2013-05-08 02:08:00,68.8,57.0,29.91,South,175,7.0,9.0,67,0.00,,,0.00,weatherlink.com 1.10,2013-05-08 07:08:00,
2013-05-08 02:23:00,69.1,58.0,29.91,SSE,164,5.0,11.0,68,0.00,,,0.00,weatherlink.com 1.10,2013-05-08 07:23:00,
2013-05-08 02:38:00,68.6,58.0,29.90,SSE,156,9.0,13.0,69,0.00,,,0.00,weatherlink.com 1.10,2013-05-08 07:38:00,
2013-05-08 02:53:00,68.2,58.0,29.90,SSE,152,7.0,9.0,70,0.00,,,0.00,weatherlink.com 1.10,2013-05-08 07:53:00,
2013-05-08 03:08:00,67.9,58.0,29.89,SSE,160,7.0,14.0,71,0.00,,,0.00,weatherlink.com 1.10,2013-05-08 08:08:00,
2013-05-08 03:23:00,67.4,58.0,29.89,SSE,156,9.0,13.0,72,0.00,,,0.00,weatherlink.com 1.10,2013-05-08 08:23:00,
2013-05-08 03:38:00,67.2,58.0,29.89,SSE,165,4.0,12.0,73,0.00,,,0.00,weatherlink.com 1.10,2013-05-08 08:38:00,
2013-05-08 03:53:00,67.1,58.0,29.89,South,176,11.0,14.0,73,0.00,,,0.00,weatherlink.com 1.10,2013-05-08 08:53:00,
2013-05-08 04:08:00,67.0,58.0,29.89,South,176,9.0,15.0,73,0.00,,,0.00,weatherlink.com 1.10,2013-05-08 09:08:00,
2013-05-08 04:23:00,66.6,58.0,29.89,South,176,10.0,16.0,74,0.00,,,0.00,weatherlink.com 1.10,2013-05-08 09:23:00,
2013-05-08 04:38:00,66.2,57.0,29.89,South,173,16.0,17.0,73,0.00,,,0.00,weatherlink.com 1.10,2013-05-08 09:38:00,
2013-05-08 04:53:00,65.8,57.0,29.90,South,169,8.0,15.0,74,0.00,,,0.00,weatherlink.com 1.10,2013-05-08 09:53:00,
2013-05-08 05:09:00,65.2,58.0,29.91,South,173,7.0,13.0,77,0.00,,,0.00,weatherlink.com 1.10,2013-05-08 10:09:00,
2013-05-08 05:24:00,64.9,58.0,29.91,South,173,8.0,11.0,78,0.00,,,0.00,weatherlink.com 1.10,2013-05-08 10:24:00,
2013-05-08 05:39:00,64.3,58.0,29.91,SSE,161,8.0,10.0,81,0.00,,,0.00,weatherlink.com 1.10,2013-05-08 10:39:00,
2013-05-08 05:54:00,63.6,58.0,29.91,SSE,160,10.0,13.0,83,0.00,,,0.00,weatherlink.com 1.10,2013-05-08 10:54:00,
2013-05-08 06:09:00,63.4,59.0,29.91,SSE,163,9.0,14.0,84,0.00,,,0.00,weatherlink.com 1.10,2013-05-08 11:09:00,
2013-05-08 06:24:00,63.5,59.0,29.91,South,175,9.0,15.0,85,0.00,,,0.00,weatherlink.com 1.10,2013-05-08 11:24:00,
2013-05-08 06:39:00,63.7,60.0,29.91,South,180,7.0,14.0,86,0.00,,,0.00,weatherlink.com 1.10,2013-05-08 11:39:00,
2013-05-08 06:54:00,63.9,60.0,29.91,South,174,7.0,12.0,86,0.00,,,0.00,weatherlink.com 1.10,2013-05-08 11:54:00,
2013-05-08 07:09:00,64.5,60.0,29.92,South,187,10.0,11.0,86,0.00,,,0.00,weatherlink.com 1.10,2013-05-08 12:09:00,
2013-05-08 07:24:00,64.9,61.0,29.92,SSW,192,7.0,12.0,86,0.00,,,0.00,weatherlink.com 1.10,2013-05-08 12:24:00,
2013-05-08 07:39:00,65.2,61.0,29.92,South,181,7.0,15.0,86,0.00,,,0.00,weatherlink.com 1.10,2013-05-08 12:39:00,
2013-05-08 07:54:00,65.7,62.0,29.93,South,188,7.0,12.0,86,0.00,,,0.00,weatherlink.com 1.10,2013-05-08 12:54:00,
2013-05-08 08:09:00,66.2,62.0,29.93,South,186,6.0,13.0,85,0.00,,,0.00,weatherlink.com 1.10,2013-05-08 13:09:00,
2013-05-08 08:24:00,66.8,62.0,29.93,South,177,9.0,12.0,85,0.00,,,0.00,weatherlink.com 1.10,2013-05-08 13:24:00,
2013-05-08 08:39:00,67.0,62.0,29.94,South,175,7.0,13.0,84,0.00,,,0.00,weatherlink.com 1.10,2013-05-08 13:39:00,
2013-05-08 08:54:00,67.2,62.0,29.94,South,171,12.0,14.0,83,0.00,,,0.00,weatherlink.com 1.10,2013-05-08 13:54:00,
2013-05-08 09:09:00,67.6,62.0,29.94,South,190,8.0,13.0,83,0.00,,,0.00,weatherlink.com 1.10,2013-05-08 14:09:00,
2013-05-08 09:24:00,68.1,62.0,29.94,South,179,12.0,16.0,82,0.00,,,0.00,weatherlink.com 1.10,2013-05-08 14:24:00,
2013-05-08 09:39:00,68.6,63.0,29.94,South,180,8.0,16.0,82,0.00,,,0.00,weatherlink.com 1.10,2013-05-08 14:39:00,
2013-05-08 09:54:00,68.7,63.0,29.94,South,180,14.0,18.0,81,0.00,,,0.00,weatherlink.com 1.10,2013-05-08 14:54:00,
2013-05-08 10:09:00,68.8,63.0,29.94,SSE,168,14.0,16.0,82,0.00,,,0.00,weatherlink.com 1.10,2013-05-08 15:09:00,
2013-05-08 10:24:00,69.1,63.0,29.94,South,175,9.0,14.0,82,0.00,,,0.00,weatherlink.com 1.10,2013-05-08 15:24:00,
2013-05-08 10:39:00,69.4,63.0,29.95,South,179,9.0,16.0,81,0.00,,,0.00,weatherlink.com 1.10,2013-05-08 15:39:00,
2013-05-08 10:54:00,70.3,64.0,29.94,SSW,193,9.0,12.0,80,0.00,,,0.00,weatherlink.com 1.10,2013-05-08 15:54:00,
2013-05-08 11:09:00,71.0,64.0,29.94,South,188,10.0,15.0,79,0.00,,,0.00,weatherlink.com 1.10,2013-05-08 16:09:00,
2013-05-08 11:24:00,72.3,64.0,29.94,South,181,10.0,20.0,75,0.00,,,0.00,weatherlink.com 1.10,2013-05-08 16:24:00,
2013-05-08 11:39:00,73.1,64.0,29.94,South,181,13.0,18.0,74,0.00,,,0.00,weatherlink.com 1.10,2013-05-08 16:39:00,
2013-05-08 11:54:00,73.6,64.0,29.93,South,181,11.0,22.0,73,0.00,,,0.00,weatherlink.com 1.10,2013-05-08 16:54:00,
2013-05-08 12:09:00,74.0,64.0,29.93,South,179,8.0,27.0,71,0.00,,,0.00,weatherlink.com 1.10,2013-05-08 17:09:00,
2013-05-08 12:24:00,74.5,65.0,29.93,SSW,200,17.0,17.0,71,0.00,,,0.00,weatherlink.com 1.10,2013-05-08 17:24:00,
2013-05-08 12:39:00,76.8,65.0,29.93,SSW,192,14.0,20.0,66,0.00,,,0.00,weatherlink.com 1.10,2013-05-08 17:39:00,
2013-05-08 12:54:00,76.5,64.0,29.92,South,190,12.0,18.0,65,0.00,,,0.00,weatherlink.com 1.10,2013-05-08 17:54:00,
2013-05-08 13:09:00,76.6,64.0,29.92,South,189,8.0,18.0,65,0.00,,,0.00,weatherlink.com 1.10,2013-05-08 18:09:00,
2013-05-08 13:24:00,77.4,64.0,29.92,SSW,198,11.0,18.0,63,0.00,,,0.00,weatherlink.com 1.10,2013-05-08 18:24:00,
2013-05-08 13:39:00,78.1,64.0,29.91,South,187,7.0,17.0,63,0.00,,,0.00,weatherlink.com 1.10,2013-05-08 18:39:00,
2013-05-08 13:54:00,78.0,64.0,29.91,SSW,205,10.0,15.0,63,0.00,,,0.00,weatherlink.com 1.10,2013-05-08 18:54:00,
2013-05-08 14:09:00,78.6,64.0,29.91,South,190,11.0,18.0,61,0.00,,,0.00,weatherlink.com 1.10,2013-05-08 19:09:00,
2013-05-08 14:24:00,78.4,64.0,29.91,South,186,10.0,16.0,62,0.00,,,0.00,weatherlink.com 1.10,2013-05-08 19:24:00,
2013-05-08 14:39:00,78.3,64.0,29.91,SSW,195,13.0,18.0,62,0.00,,,0.00,weatherlink.com 1.10,2013-05-08 19:39:00,
2013-05-08 14:54:00,78.4,65.0,29.91,SSW,199,6.0,16.0,63,0.00,,,0.00,weatherlink.com 1.10,2013-05-08 19:54:00,
2013-05-08 15:09:00,78.2,65.0,29.90,SSW,199,11.0,17.0,65,0.00,,,0.00,weatherlink.com 1.10,2013-05-08 20:09:00,
2013-05-08 15:24:00,77.3,65.0,29.90,SSW,208,7.0,16.0,66,0.00,,,0.00,weatherlink.com 1.10,2013-05-08 20:24:00,
2013-05-08 15:40:00,76.9,65.0,29.89,SSW,195,12.0,17.0,67,0.00,,,0.00,weatherlink.com 1.10,2013-05-08 20:40:00,
2013-05-08 15:55:00,77.0,65.0,29.89,SSW,194,14.0,20.0,66,0.00,,,0.00,weatherlink.com 1.10,2013-05-08 20:55:00,
2013-05-08 16:10:00,76.2,65.0,29.88,SSW,192,13.0,17.0,69,0.00,,,0.00,weatherlink.com 1.10,2013-05-08 21:10:00,
2013-05-08 16:25:00,76.5,65.0,29.88,South,176,12.0,21.0,67,0.00,,,0.00,weatherlink.com 1.10,2013-05-08 21:25:00,
2013-05-08 16:40:00,76.5,65.0,29.88,South,175,18.0,18.0,67,0.00,,,0.00,weatherlink.com 1.10,2013-05-08 21:40:00,
2013-05-08 16:55:00,75.6,64.0,29.88,South,177,11.0,18.0,68,0.00,,,0.00,weatherlink.com 1.10,2013-05-08 21:55:00,
2013-05-08 17:10:00,75.6,65.0,29.87,SSE,167,10.0,16.0,69,0.00,,,0.00,weatherlink.com 1.10,2013-05-08 22:10:00,
2013-05-08 17:25:00,75.9,65.0,29.87,South,176,7.0,11.0,68,0.00,,,0.00,weatherlink.com 1.10,2013-05-08 22:25:00,
2013-05-08 17:40:00,76.2,65.0,29.87,South,188,5.0,10.0,69,0.00,,,0.00,weatherlink.com 1.10,2013-05-08 22:40:00,
2013-05-08 17:55:00,76.3,65.0,29.86,South,179,9.0,11.0,68,0.00,,,0.00,weatherlink.com 1.10,2013-05-08 22:55:00,
2013-05-08 18:10:00,76.9,65.0,29.84,South,178,5.0,11.0,67,0.00,,,0.00,weatherlink.com 1.10,2013-05-08 23:10:00,
2013-05-08 18:25:00,77.4,65.0,29.84,SSE,165,5.0,9.0,65,0.00,,,0.00,weatherlink.com 1.10,2013-05-08 23:25:00,
2013-05-08 18:40:00,77.6,65.0,29.82,SSE,164,8.0,13.0,66,0.00,,,0.00,weatherlink.com 1.10,2013-05-08 23:40:00,
2013-05-08 18:55:00,77.6,65.0,29.82,SSE,161,13.0,13.0,65,0.00,,,0.00,weatherlink.com 1.10,2013-05-08 23:55:00,
2013-05-08 19:10:00,77.6,64.0,29.81,SSE,168,8.0,14.0,64,0.00,,,0.00,weatherlink.com 1.10,2013-05-09 00:10:00,
2013-05-08 19:25:00,77.8,64.0,29.81,South,176,11.0,16.0,62,0.00,,,0.00,weatherlink.com 1.10,2013-05-09 00:25:00,
2013-05-08 19:40:00,77.6,64.0,29.81,South,181,8.0,12.0,63,0.00,,,0.00,weatherlink.com 1.10,2013-05-09 00:40:00,
2013-05-08 19:55:00,77.8,64.0,29.82,South,170,7.0,16.0,62,0.00,,,0.00,weatherlink.com 1.10,2013-05-09 00:55:00,
2013-05-08 20:10:00,77.7,64.0,29.82,South,169,10.0,14.0,62,0.00,,,0.00,weatherlink.com 1.10,2013-05-09 01:10:00,
2013-05-08 20:25:00,77.4,64.0,29.82,SSE,163,7.0,13.0,63,0.00,,,0.00,weatherlink.com 1.10,2013-05-09 01:25:00,
2013-05-08 20:40:00,76.5,65.0,29.83,SSE,163,7.0,10.0,67,0.00,,,0.00,weatherlink.com 1.10,2013-05-09 01:40:00,
2013-05-08 20:55:00,76.3,65.0,29.84,SSE,160,9.0,11.0,67,0.00,,,0.00,weatherlink.com 1.10,2013-05-09 01:55:00,
2013-05-08 21:10:00,75.9,65.0,29.85,SSE,160,7.0,9.0,68,0.00,,,0.00,weatherlink.com 1.10,2013-05-09 02:10:00,
2013-05-08 21:25:00,75.2,65.0,29.84,SSE,158,8.0,9.0,70,0.00,,,0.00,weatherlink.com 1.10,2013-05-09 02:25:00,
2013-05-08 21:40:00,75.1,65.0,29.85,SSE,158,9.0,10.0,70,0.00,,,0.00,weatherlink.com 1.10,2013-05-09 02:40:00,
2013-05-08 21:55:00,74.5,64.0,29.85,SSE,149,10.0,14.0,69,0.00,,,0.00,weatherlink.com 1.10,2013-05-09 02:55:00,
2013-05-08 22:10:00,74.1,64.0,29.85,SSE,154,9.0,13.0,71,0.00,,,0.00,weatherlink.com 1.10,2013-05-09 03:10:00,
2013-05-08 22:25:00,74.1,63.0,29.86,SSE,158,15.0,19.0,69,0.00,,,0.00,weatherlink.com 1.10,2013-05-09 03:25:00,
2013-05-08 22:40:00,73.8,62.0,29.87,SSE,158,13.0,21.0,66,0.00,,,0.00,weatherlink.com 1.10,2013-05-09 03:40:00,
2013-05-08 22:55:00,73.5,61.0,29.87,SSE,167,22.0,24.0,65,0.00,,,0.00,weatherlink.com 1.10,2013-05-09 03:55:00,
2013-05-08 23:10:00,73.2,61.0,29.87,South,169,16.0,25.0,66,0.00,,,0.00,weatherlink.com 1.10,2013-05-09 04:10:00,
2013-05-08 23:25:00,72.6,61.0,29.87,SSE,168,17.0,24.0,67,0.00,,,0.00,weatherlink.com 1.10,2013-05-09 04:25:00,
2013-05-08 23:40:00,72.1,61.0,29.87,South,175,15.0,24.0,69,0.00,,,0.00,weatherlink.com 1.10,2013-05-09 04:40:00,
2013-05-08 23:55:00,71.7,62.0,29.87,SSE,167,15.0,23.0,72,0.00,,,0.00,weatherlink.com 1.10,2013-05-09 04:55:00,